Espace membre
Imprimable
Challenges > Delhalle - Angreau, 07/08/2010, BEL - La Course du Poete
Liste des rapports > Delhalle - 17.5km - Classement
Recherche: Page: [1]
87 Entrées
 
Les réclamations ne sont plus acceptées, les résultats sont considérés comme définitifs.
RangNrNomAgeIOCLigueEquipeRéelTempsTkmMoy.ScrPtsLocalité
1.4VANDERBECK Yves42BELRIWARONVAU1:01:341:01:353:35 16.7621074MALONNE
2.238VAN DEN ABEELE Sebastian40BELACLO1:03:181:03:193:41 16.3051045CARNIERES
3.2833SOYEZ Frank45BELOXY20001:07:261:07:283:56 15.3013977NIMY
4.699ETIENNE Fabrice41BELRCNAMUR1:07:501:07:533:57 15.2014970FLOREFFE
5.278HANOT Serge47BELRONVAU1:08:191:08:213:59 15.1015963LIERNU
6.342LOMBART Frederic43BELOCAN1:10:181:10:194:06 14.6821929GEMBLOUX
7.562MATHOREL Jean-Michel47BELDSDS RUNNING1:11:401:11:424:11 14.3926906BAUDOUR
8.228MARCHAL Yves40BELRUN WILD1:11:471:11:504:11 14.3727904VEDRIN
9.275COLLOT Joseph46BELANTILOB1:12:421:12:454:14 14.1930889GREZ-DOICEAU
10.348MANIQUET Michel47BELUACDILAVILE1:14:261:14:344:21 13.8440857BIESME
11.2806VACKIER Pol44BELAV MOLENLAND1:15:121:15:164:23 13.7142845
12.321ORVAL Alain41BELHAC1:15:491:15:514:25 13.6144835CINEY
13.406NEYMAN Eric42BEL1:15:441:15:524:25 13.6045836HERON
14.2917MONTERO ???45BELAXA TEAM1:16:411:16:464:28 13.4448821
15.783POCHET Fabrice44BEL1:17:061:17:094:30 13.3852812
16.2793LANNOO Dirk47BELAV MOLENLAND1:17:551:17:564:32 13.2458796
17.636HANOTIAU Jean-Marc48BELCEPAL1:17:581:18:024:33 13.2359795EVERE
18.2845DEGLASSE Yvon49BEL1:17:581:18:064:33 13.2160793
19.2838DE JAEGERE Andy40BELNO LIMIT TEA1:18:421:18:524:36 13.0966779SINT-DENIJS
20.106LORGE Jean Marc44BELRONVAU1:19:371:19:404:38 12.9568766EGHEZEE
21.2782DESMET Alain47BELPOPUELLES1:19:401:20:034:40 12.8969764VAUDIGNIES
22.404TILBURGS Frank43BELAVN1:20:491:20:564:43 12.7573747MEER
23.264SCAILLET Vincent41BEL1:20:511:21:014:43 12.7475745HEER
24.991DE HERTOG Philippe40BELGRIMAFRIT 71:21:241:21:304:45 12.6682731WETTEREN
25.2778CARDINAL Pascal48BEL1:21:101:21:374:45 12.6484732CUESMES
26.705VANDEVENNE Patrick47BELUSBW1:21:371:21:454:46 12.6285726WATERLOO
27.2873GASTOUT Thierry49BELOBJ1:22:021:22:134:47 12.5588718
28.134GILON Marc47BELRCNAMUR1:22:101:22:144:47 12.5589716NAMUR
29.2863JACQUY Rudy49BELGERP&CO1:22:471:22:504:49 12.4691707
30.2908POLOME Guy49BEL1:23:021:23:054:50 12.4292703
31.738WILLEMS Lucas49BEL1:23:021:23:094:51 12.4193702SAINT MARTIN
32.210DALCQ Jean-Claude47BELRONVAU1:23:251:23:324:52 12.35100691WALHAIN
33.2823VAN DEN BOGAERT Herman41BELWAV1:24:071:24:224:55 12.23102681WOMMELGEM
34.2864GAUSSET Olivier43BELAXA TEAM1:24:291:24:404:56 12.19106673
35.655ROBAYE Eddy40BEL1:25:121:25:184:58 12.10108663MAILLEN (ASSESS
36.429DENEFFE Philippe49BELJCHOUYET1:25:121:25:264:59 12.08109662HOUYET
37.2794LEROY Maurice-Henri44FRA1:25:001:25:475:00 12.03112661LAMBRES LEZ DOU
38.462BISIAW Philippe49FRA1:25:421:25:515:00 12.02113653
39.2911KOTECKI Eric47FRAOBJ1:25:521:26:015:01 12.00115649
40.520DE NARDI Jean-Carlo48BEL1:26:071:26:115:01 11.97118643SAINT SERVAIS
41.685LETELLIER Jean Luc45BEL1:26:091:26:155:01 11.97120641WAVRE
42.594PARDON Pascal43BEL1:26:221:26:375:03 11.91124635MELLET
43.2787FLAMANG Jean-Pierre44BELFER1:26:221:26:435:03 11.90127632FRAMERIES
44.752PAULUS Bernard44BELESM1:28:011:28:155:08 11.69138603MONT-SUR-MARCHI
45.2885BALLARINI Marco49BELESM1:28:021:28:155:08 11.69139602LEVAL - TRAHEGN
46.2812VAN AUTGAERDEN Marc Joseph47BELGERP&CO1:29:021:29:135:12 11.57144587HAM-SUR-HEURE
47.2798PLASMAN Christian46BELJOGGANS1:29:081:29:145:12 11.57145585GANSHOREN
48.591LEROY Marc45BELUSBW1:29:291:29:435:13 11.50150576BRAINE L'ALLEUD
49.2704TRANCHANT Olivier46BEL1:29:481:30:015:15 11.46151572JURBISE
50.2890DRUART Philippe48BELATH RUNNERS1:30:081:30:275:16 11.41154566ATH
51.2830DEGHIEN Yves46BELOBJ1:30:281:30:405:17 11.38157559THIVENCELLES
52.339VAN WEVERBERG Marc47BELJOGGANS1:31:271:31:395:20 11.26166540GANSHOREN
53.499LAURENT Philippe44BELBAIL RUN1:31:241:31:455:21 11.25169538YVOIR
54.2829LORGE Pascal Marcel41BEL1:31:481:31:575:21 11.22172531ANDENNE
55.2903MOREAU Eddy47BEL1:32:091:32:365:24 11.14175524SAINT-GHISLAIN
56.614MASALA Vincenzo43BELACLO1:32:191:32:455:24 11.13177521HAINE SAINT PIE
57.2918PETIT Jean-Luc43BEL1:32:501:33:015:25 11.09180512
58.192GEUSKENS Jean Marc46BEL1:35:111:35:185:33 10.83189480BRUXELLES
59.2846CAPRARO Tommaso42BELFER1:35:431:36:045:36 10.74194470
60.640DANESE Marc47BEL1:39:001:39:315:48 10.37226407HOLLOGNE
61.227PATERNOSTRE Jean-Jacques48BELWAIKIKI1:39:141:39:435:48 10.35228403JUMET
62.172HARMEGNIES Michel49BELTRIGTSPIBO1:39:381:40:025:49 10.32233395HORNU
63.2837ROOS Joël Albert42BEL1:39:341:40:065:50 10.31235393FRASNES-LEZ-ANV
64.2878SPAGNUOLO Angelo49BELSPIBO1:40:051:40:145:50 10.30237386
65.2879TIELEMANS Philippe49BEL1:40:331:41:015:53 10.22240379SART-DAMES-AVEL
66.2832LECOCQ Philippe47BELVELAINES1:42:021:42:195:57 10.09247359ANTOING
67.2921SAINTES Emmanuel42BEL1:40:191:42:435:59 10.05249373GHLIN
68.2886BOTTE Jean-Francois46BEL1:45:041:45:126:07 9.81257321
69.2779CORDIER Claudy46BEL1:45:301:45:506:10 9.75260314DOUR
70.260VANHOUTTE John47BELRIWA1:45:431:45:556:10 9.74261312RIXENSART
71.2702VAN BERGEN Alain49BELFLEUFLEU1:46:081:46:326:12 9.69266303AISEAU PRESLES
72.2811FERNANDEZ Raul40ESP1:47:031:47:106:14 9.63268293BRUXELLES
73.196MALENGREAUX Patrice48BELTORTUES MESL1:47:511:48:136:18 9.54272282BRAY
74.2790HERNOUX Franck41FRA1:48:021:48:166:18 9.53274278AULNOYE
75.413LIVEMONT Emmanuel49BELRRTCHATEL1:50:021:50:426:27 9.32287248SUARLEE
76.2835MELIS Giuseppe44BELVPJC1:50:571:51:116:28 9.28291237NIMY
77.2809ZEDDA Constantino45ITA1:52:591:53:136:35 9.12301210VALENCIENNES
78.2810PETROV Vanio44BEL1:53:451:53:516:38 9.06303202BRUXELLES
79.2781DEFRERE Eddy44BELLBFAATHLÉTIC CLU1:53:481:54:066:39 9.04304200CRISNEE
80.2842GOESSENS Jean-Louis45BEL1:53:491:54:076:39 9.04305199HONNELLES
81.432VLAMINCK Thierry40BELUSBWUSBW2:02:462:03:097:10 8.38327106BRAINE L'ALLEUD
82.2852DEWECKERE Andre47BELZATAC2:05:052:05:167:17 8.2433283
83.2859POTVIN Vincent41BELZATAC2:05:062:05:177:18 8.2433481ANGREAU
84.2851DENIS Dimitri43BELZATAC2:05:032:05:177:18 8.2433581ROISIN
85.2891GODART Thierry41BELZATAC2:10:182:10:337:36 7.9134136
86.2857DESTREBECQ Ruddy45BELZATAC2:12:032:12:187:42 7.8034420
DNF8ANTOINE Alain49BELRCNAMURBOUGE
DNF: abandon; DSQ: disqualifié; Vitesse en km/h
Page: [1]